User: anonymous   Login
Location: Plainartige
(45.6866°N, 1.7993°E)
Time: 15:33:02
(UTC+00:00)
Language:

BREEZE-M DEB (TANK) - Orbit

View from above orbital plane
View from above orbital plane
View from above satellite
View from above satellite

Ground track
Ground track

The orbit data is extracted from the following two-line orbital elements,

1 29271U 06032C   21131.84718334  .00002059  00000-0  51894-3 0  9994
2 29271  49.5259 309.5512 5299696 112.9774 310.1106  5.11333809268808
Epoch (UTC): 11 May 2021 20:19:56
Eccentricity: 0.5299696
inclination: 49.5259°
perigee height: 311 km
apogee height: 15396 km
right ascension of ascending node: 309.5512°
argument of perigee: 112.9774°
revolutions per day: 5.11333809
mean anomaly at epoch: 310.1106°
orbit number at epoch: 26880

The dashed part of the orbit path shows where the satellite is in the earth's shadow,  

DLR